Flight Information

DEPARTURE
SAN DIEGO, CA
Elevation:
16
Runways:
9/27 - 9400x200 - ASPH-CONC-E
Active PE Departure:
27
Current PE ATIS:
J
Altimeter:
30.15
Remarks:
V F R DEPARTURES CONTACT CLEARANCE DELIVERY, ADVISE ON COURSE HEADING, ALTITUDE, AND IF FLIGHT FOLLOWING IS REQUESTED.
ATIS:
134.8 619-298-0997
Clearance Delivery:
125.9
Ground:
123.9
Tower:
LINDBERGH TOWER 118.3
DESTINATION
,
Elevation:
TPA:
1000 (est.)


6756 NM74° True-13° Var61° HDG

Flight Plan:
(click to file on line)

1. Type
2. Aircraft Identification
3. Aircraft Type / Special Equipment
4. True Airspeed
kts
5. Departure Airport
(ICAO code)
6. Arriving Airport
(ICAO code)
7. Cruising Altitude
ft
8. Alternate Airport
(ICAO code)
9. Route of Flight
10. Remarks


00:00:00 Departure ATIS: Destination ATIS:

Clearance Limit:
Route:
Altitude: Expect in minutes
Frequency:
Transponder: (7500 Hijack / 7600 Lost Comms / 7700 Emergency)


KSAN 100551Z 00000KT 10SM CLR 10/07 A3015 RMK AO2 SLP208 T01000072 10156 20094 53008
Time: 2022-12-10T05:51:00Z
1670653527
Winds: calm
Visibility: 10.0 sm
Clouds (AGL): CLR
Temperature: 10.0 C
Dew Point: 7.2 C
Pressure: 30.15059 in Hgbr


Notes:

Data extracted from FAA Digital Chart Supplement. Effective: 0901Z Thursday, 27 JAN 2022 to 0900z Thursday, 24 MAR 2022
Current ATIS data is provided courtisy of PilotEdge.